15 daagse weersverwachting Mo i Rana (NO)

  • Overzicht
  • Per uur
  • 15 dagen
  • Extra
  • Vergelijk
  • Kaarten
  • Dagkaart
  • Meer »
  • Info
  • Statistieken
  • Directe link
    Temp 6h Neerslag Wind  
 05:07     21:08    Daglengte: 16:01 Vandaag
08:00
11°
 
3
14:00
14°
 
1
20:00
15°
 
2
 05:10     21:04    Daglengte: 15:54 Morgen
02:00
12°
 
2
08:00
12°
 
2
14:00
13°
5.4 mm
2
20:00
12°
7.3 mm
3
 05:14     21:00    Daglengte: 15:46 Zaterdag 24 Aug
02:00
10°
 
2
08:00
11°
 
1
14:00
16°
 
1
20:00
15°
 
1
 05:17     20:56    Daglengte: 15:39 Zondag 25 Aug
02:00
12°
7.5 mm
2
Locatie info
Region: Nordland
Latitude: 66.3106°N
Longitude: 14.1346°E
40 masl
Postcode: 8622
Temp/Neerslag /Baro Onweer/Dauwpunt
    Temp Baro 1h Neerslag Dauwpunt Wind UV Bewolking  
 05:07     21:08    Daglengte: 16:01 Vandaag
08:00
11°
1019.2 hPa
34%
7.8°
3
Windvlaag: 4.7 km/h
44%
09:00
11°
1019.2 hPa
20%
7.5°
3
Windvlaag: 5 km/h
42%
10:00
12°
1019.1 hPa
15%
7.6°
3
Windvlaag: 5.1 km/h
24%
11:00
13°
1018.8 hPa
14%
7.6°
2
Windvlaag: 4.7 km/h
16%
12:00
13°
1018.5 hPa
14%
7.1°
2
Windvlaag: 3.9 km/h
17%
13:00
14°
1017.9 hPa
14%
6.5°
1
Windvlaag: 3.2 km/h
27%
14:00
14°
1017.4 hPa
14%
6.1°
1
Windvlaag: 2.9 km/h
8%
15:00
15°
1017.0 hPa
14%
5.5°
1
Windvlaag: 3 km/h
4%
16:00
16°
1016.5 hPa
14%
5.1°
1
Windvlaag: 2.7 km/h
1%
17:00
16°
1016.0 hPa
14%
4.7°
1
Windvlaag: 3 km/h
10%
18:00
16°
1015.4 hPa
14%
4.4°
2
Windvlaag: 2.8 km/h
16%
19:00
16°
1014.8 hPa
14%
4.6°
2
Windvlaag: 3.2 km/h
19%
20:00
15°
1014.4 hPa
14%
5.3°
2
Windvlaag: 3 km/h
52%
21:00
13°
1014.2 hPa
14%
5.0°
2
Windvlaag: 3 km/h
66%
22:00
12°
1013.9 hPa
14%
7.3°
2
Windvlaag: 4.3 km/h
67%
23:00
11°
1013.6 hPa
14%
6.8°
2
Windvlaag: 4 km/h
59%
 05:10     21:04    Daglengte: 15:54 Morgen
00:00
11°
1013.3 hPa
14%
6.8°
2
Windvlaag: 1.8 km/h
51%
01:00
12°
1013.1 hPa
14%
7.0°
2
Windvlaag: 2 km/h
64%
02:00
12°
1012.9 hPa
14%
7.5°
2
Windvlaag: 2.1 km/h
80%
03:00
12°
1012.8 hPa
14%
7.9°
2
Windvlaag: 2.2 km/h
90%
04:00
12°
1012.4 hPa
17%
8.7°
2
Windvlaag: 2.3 km/h
86%
05:00
11°
1012.2 hPa
27%
9.8°
2
Windvlaag: 2.6 km/h
87%
06:00
11°
1012.0 hPa
72%
10.0°
2
Windvlaag: 2.1 km/h
84%
07:00
11°
1011.9 hPa
80%
10.0°
2
Windvlaag: 3.1 km/h
83%
08:00
12°
1011.9 hPa
82%
10.4°
2
Windvlaag: 3 km/h
70%
09:00
12°
1011.9 hPa
82%
10.7°
2
Windvlaag: 2.8 km/h
85%
10:00
13°
1012.0 hPa 1.3 mm
81%
10.6°
1
Windvlaag: 2.4 km/h
70%
11:00
13°
1012.2 hPa 1.4 mm
82%
10.6°
1
Windvlaag: 2.7 km/h
78%
12:00
14°
1012.4 hPa 1.3 mm
82%
10.6°
1
Windvlaag: 3 km/h
88%
13:00
14°
1012.8 hPa
82%
10.3°
1
Windvlaag: 2.8 km/h
87%
14:00
13°
1013.3 hPa 1.4 mm
82%
9.9°
2
Windvlaag: 3.2 km/h
87%
15:00
13°
1013.8 hPa 1.5 mm
82%
9.4°
3
Windvlaag: 4.2 km/h
78%
16:00
13°
1014.2 hPa 1.7 mm
82%
10.2°
3
Windvlaag: 4.5 km/h
70%
17:00
13°
1014.5 hPa
82%
10.5°
3
Windvlaag: 4.8 km/h
68%
18:00
13°
1014.9 hPa 1.5 mm
82%
10.7°
3
Windvlaag: 5.3 km/h
70%
19:00
13°
1015.3 hPa 1.4 mm
82%
10.6°
3
Windvlaag: 5.1 km/h
63%
20:00
12°
1015.9 hPa 1.2 mm
82%
10.5°
3
Windvlaag: 4.8 km/h
62%
21:00
12°
1016.5 hPa
74%
10.5°
2
Windvlaag: 5 km/h
50%
22:00
12°
1016.9 hPa
68%
10.4°
2
Windvlaag: 4.6 km/h
55%
23:00
11°
1017.4 hPa
22%
10.2°
2
Windvlaag: 3.7 km/h
52%
 05:14     21:00    Daglengte: 15:46 Zaterdag 24 Aug
00:00
11°
1018.0 hPa
14%
10.2°
2
Windvlaag: 3.5 km/h
34%
01:00
11°
1018.5 hPa
14%
10.1°
2
Windvlaag: 3.3 km/h
36%
02:00
10°
1019.0 hPa
14%
9.7°
2
Windvlaag: 3 km/h
37%
03:00
11°
1019.6 hPa
14%
9.6°
2
Windvlaag: 2.5 km/h
39%
04:00
10°
1020.2 hPa
14%
9.4°
2
Windvlaag: 2.2 km/h
35%
05:00
Voelt als: 9.1°
1020.3 hPa
22%
8.1°
1
Windvlaag: 2.1 km/h
41%
06:00
10°
1020.7 hPa
21%
8.8°
2
Windvlaag: 2.2 km/h
55%
07:00
11°
1021.0 hPa
21%
9.2°
1
Windvlaag: 2.1 km/h
61%
08:00
11°
1021.2 hPa
21%
9.9°
1
Windvlaag: 1.7 km/h
59%
09:00
12°
1021.5 hPa
21%
10.6°
1
Windvlaag: 1.7 km/h
47%
10:00
13°
1021.7 hPa
22%
10.9°
1
Windvlaag: 2.4 km/h
59%
11:00
14°
1021.9 hPa
34%
11.1°
1
Windvlaag: 2.6 km/h
68%
12:00
15°
1022.2 hPa
43%
10.6°
2
Windvlaag: 2.8 km/h
66%
13:00
15°
1022.1 hPa
43%
10.3°
1
Windvlaag: 2.8 km/h
50%
14:00
16°
1022.2 hPa
29%
10.1°
1
Windvlaag: 2.6 km/h
63%
15:00
16°
1021.8 hPa
29%
9.6°
2
Windvlaag: 3.3 km/h
31%
16:00
16°
1021.7 hPa
34%
8.8°
2
Windvlaag: 3.2 km/h
79%
17:00
16°
1021.5 hPa
27%
8.5°
1
Windvlaag: 2.8 km/h
59%
18:00
16°
1021.3 hPa
21%
8.1°
1
Windvlaag: 2.4 km/h
58%
19:00
15°
1021.2 hPa
21%
7.9°
1
Windvlaag: 1.8 km/h
78%
20:00
15°
1021.1 hPa
21%
8.3°
1
Windvlaag: 1.3 km/h
62%
21:00
14°
1020.9 hPa
21%
8.4°
1
Windvlaag: 0.1 km/h
71%
22:00
13°
1020.8 hPa
21%
8.5°
1
Windvlaag: 1 km/h
84%
23:00
13°
1020.6 hPa
21%
8.5°
2
Windvlaag: 1 km/h
90%
 05:17     20:56    Daglengte: 15:39 Zondag 25 Aug
00:00
13°
1020.5 hPa 2.3 mm
28%
8.7°
2
Windvlaag: 1 km/h
91%
01:00
12°
1020.3 hPa 2.4 mm
46%
8.9°
2
Windvlaag: 0.5 km/h
92%
02:00
12°
1020.1 hPa 2.7 mm
100%
9.2°
2
Windvlaag: 0.2 km/h
92%
03:00
12°
1019.9 hPa 2.2 mm
100%
9.5°
2
Windvlaag: 6.1 km/h
90%
04:00
12°
1019.7 hPa 2.2 mm
100%
9.5°
2
Windvlaag: 7.5 km/h
88%
05:00
12°
1019.4 hPa 2.2 mm
100%
9.6°
2
Windvlaag: 7.2 km/h
97%
06:00
13°
1019.2 hPa 2.6 mm
100%
9.8°
2
Windvlaag: 8.9 km/h
95%
07:00
13°
1018.9 hPa 2.7 mm
100%
10.3°
2
Windvlaag: 8.7 km/h
97%
Temp/Neerslag /Baro Onweer/Dauwpunt
    Temp Baro Neerslag Dauwpunt Wind Bewolking  
 05:07     21:08    Daglengte: 16:01 Vandaag
08:00
11°
1019.2 hPa   7.8°
3
44%
11:00
13°
1018.8 hPa   7.6°
2
16%
14:00
14°
1017.4 hPa   6.1°
1
8%
17:00
16°
1016.0 hPa   4.7°
1
10%
20:00
15°
1014.4 hPa   5.3°
2
52%
23:00
11°
1013.6 hPa   6.8°
2
59%
 05:10     21:04    Daglengte: 15:54 Morgen
02:00
12°
1012.9 hPa   7.5°
2
80%
05:00
11°
1012.2 hPa   9.8°
2
87%
08:00
12°
1011.9 hPa   10.4°
2
70%
11:00
13°
1012.2 hPa 2.7 mm 10.6°
1
78%
14:00
13°
1013.3 hPa 2.7 mm 9.9°
2
87%
17:00
13°
1014.5 hPa 3.2 mm 10.5°
3
68%
20:00
12°
1015.9 hPa 4.1 mm 10.5°
3
62%
23:00
11°
1017.4 hPa   10.2°
2
52%
 05:14     21:00    Daglengte: 15:46 Zaterdag 24 Aug
02:00
10°
1019.0 hPa   9.7°
2
37%
05:00
Voelt als: 9.1°
1020.3 hPa   8.1°
1
41%
08:00
11°
1021.2 hPa   9.9°
1
59%
11:00
14°
1021.9 hPa   11.1°
1
68%
14:00
16°
1022.2 hPa   10.1°
1
63%
17:00
16°
1021.5 hPa   8.5°
1
59%
20:00
15°
1021.1 hPa   8.3°
1
62%
23:00
13°
1020.6 hPa   8.5°
2
90%
 05:17     20:56    Daglengte: 15:39 Zondag 25 Aug
02:00
12°
1020.1 hPa 7.5 mm 9.2°
2
92%
05:00
12°
1019.4 hPa 6.6 mm 9.6°
2
97%
08:00
13°
1018.7 hPa 8.2 mm 10.6°
2
99%
11:00
16°
1018.7 hPa 10.7 mm 13.8°
2
92%
14:00
18°
1018.4 hPa 11.9 mm 15.4°
2
92%
17:00
17°
1017.3 hPa 14.5 mm 15.4°
2
92%
20:00
16°
1016.3 hPa 17.6 mm 15.3°
2
92%
23:00
15°
1016.4 hPa 18.9 mm 14.2°
2
92%
 05:20     20:52    Daglengte: 15:32 Maandag 26 Aug
02:00
14°
1016.6 hPa 20.3 mm 13.1°
3
92%
05:00
14°
1016.8 hPa 21.2 mm 13.1°
3
91%
08:00
14°
1016.9 hPa 21.7 mm 13.1°
3
91%
11:00
17°
1017.3 hPa 21.7 mm 14.2°
3
91%
14:00
20°
1017.6 hPa 22.0 mm 15.0°
4
92%
17:00
20°
1017.7 hPa 22.3 mm 15.5°
3
92%
20:00
19°
1017.9 hPa 24.7 mm 15.9°
2
92%
23:00
17°
1019.0 hPa 30.7 mm 14.4°
2
89%
 05:24     20:48    Daglengte: 15:24 Dinsdag 27 Aug
02:00
14°
1020.2 hPa 31.5 mm 12.5°
3
86%
05:00
14°
1019.7 hPa 31.9 mm 12.7°
3
86%
08:00
15°
1019.2 hPa 32.7 mm 12.8°
3
85%
11:00
19°
1019.0 hPa 33.4 mm 14.6°
3
80%
14:00
23°
1018.9 hPa 35.2 mm 16.1°
3
76%
17:00
21°
1017.7 hPa 37.7 mm 16.2°
3
75%
20:00
20°
1016.7 hPa 39.3 mm 16.2°
2
75%
23:00
17°
1016.7 hPa 39.6 mm 14.5°
2
71%
 05:27     20:44    Daglengte: 15:17 Woensdag 28 Aug
02:00
15°
1016.6 hPa 40.3 mm 12.7°
3
67%
05:00
15°
1016.7 hPa 42.1 mm 13.5°
3
57%
08:00
16°
1016.8 hPa 46.6 mm 14.3°
3
47%
11:00
20°
1016.9 hPa 50.5 mm 16.0°
3
56%
14:00
24°
1017.0 hPa 52.4 mm 17.5°
4
66%
17:00
22°
1016.6 hPa 52.7 mm 17.5°
3
67%
20:00
20°
1016.3 hPa 53.1 mm 17.4°
2
69%
23:00
18°
1016.0 hPa 53.3 mm 15.7°
2
54%
 05:31     20:40    Daglengte: 15:09 Donderdag 29 Aug
02:00
16°
1015.6 hPa 53.7 mm 14.1°
3
40%
05:00
16°
1014.5 hPa   13.9°
3
58%
08:00
16°
1013.5 hPa 108.6 mm 13.8°
3
76%
14:00
20°
1013.2 hPa 113.8 mm 14.6°
4
81%
20:00
17°
1014.1 hPa 116.8 mm 13.4°
2
73%
 05:34     20:36    Daglengte: 15:02 Vrijdag 30 Aug
02:00
13°
1014.3 hPa 131.3 mm 10.9°
2
63%
08:00
13°
1012.5 hPa 142.5 mm 11.8°
3
85%
14:00
17°
1013.4 hPa 142.9 mm 11.9°
4
87%
20:00
16°
1012.1 hPa 143.4 mm 12.8°
2
78%
 05:37     20:32    Daglengte: 14:55 Zaterdag 31 Aug
02:00
12°
1011.2 hPa 143.5 mm 10.6°
2
85%
08:00
12°
1011.0 hPa 143.5 mm 10.4°
3
87%
14:00
17°
1015.5 hPa 143.5 mm 7.1°
1
1%
20:00
13°
1016.1 hPa 143.5 mm 9.4°
1
1%
 05:40     20:28    Daglengte: 14:48 Zondag 01 Sep
02:00
11°
1007.9 hPa 1.5 mm 10.0°
1
69%
08:00
12°
1007.7 hPa 2.0 mm 10.1°
1
72%
14:00
14°
1007.7 hPa 2.4 mm 9.7°
2
75%
20:00
12°
1008.6 hPa 1.4 mm 9.3°
1
67%
 05:44     20:24    Daglengte: 14:40 Maandag 02 Sep
02:00
10°
Voelt als: 9.9°
1009.9 hPa 1.1 mm 8.5°
1
56%
08:00
11°
1009.9 hPa 0.6 mm 8.5°
1
58%
14:00
14°
1009.9 hPa 1.1 mm 8.0°
1
59%
20:00
12°
1010.1 hPa 1.0 mm 8.2°
1
56%
 05:47     20:20    Daglengte: 14:33 Dinsdag 03 Sep
02:00
10°
Voelt als: 9.7°
1010.8 hPa 1.0 mm 7.8°
1
61%
08:00
11°
1010.7 hPa 1.3 mm 8.4°
2
65%
14:00
14°
1010.2 hPa 0.9 mm 8.6°
2
65%
20:00
12°
1009.6 hPa 1.1 mm 9.4°
1
66%
 05:50     20:16    Daglengte: 14:26 Woensdag 04 Sep
02:00
10°
1009.5 hPa 0.6 mm 8.7°
2
62%
08:00
11°
1008.7 hPa 1.7 mm 9.3°
2
67%
14:00
13°
1008.8 hPa 3.1 mm 10.1°
2
73%
20:00
12°
1009.4 hPa 3.5 mm 10.1°
2
80%
 05:54     20:12    Daglengte: 14:18 Donderdag 05 Sep
02:00
10°
1010.1 hPa 1.4 mm 9.1°
1
75%
08:00
11°
1009.5 hPa 1.1 mm 9.1°
1
70%
14:00
13°
1010.0 hPa 1.5 mm 9.2°
2
74%
20:00
11°
1011.3 hPa 1.9 mm 9.1°
2
72%
 05:57     20:08    Daglengte: 14:11 Vrijdag 06 Sep
02:00
10°
Voelt als: 9.6°
1012.8 hPa 1.1 mm 8.4°
1
65%
  CAPE Lifted Index Hail Supercell Tornado SRH 3km CL BTM PRES CL TOP PRES Swiss DWD icon SMHI TS
 05:07     21:08    Daglengte: 16:01 Vandaag
08:00 36 J/kg 3.8 K 0 % 0 % 0 % 0 m²/s² 0 0 4.91 2
09:00 17 J/kg 4.4 K 0 % 0 % 0 % 0 m²/s² 0 0 6.53 2
10:00 15 J/kg 4.0 K 0 % 0 % 0 % 0 m²/s² 0 0 6.46 1
11:00 27 J/kg 3.5 K 0 % 0 % 0 % 0 m²/s² 0 0 5.03 2
12:00 30 J/kg 3.2 K 0 % 0 % 0 % 0 m²/s² 0 0 4.16 2
13:00 40 J/kg 3.2 K 0 % 0 % 0 % 0 m²/s² 0 0 4.46 2
14:00 35 J/kg 3.2 K 0 % 0 % 0 % 0 m²/s² 0 0 5.33 2
15:00 21 J/kg 3.1 K 0 % 0 % 0 % 0 m²/s² 0 0 7.03 2
16:00 14 J/kg 2.9 K 0 % 0 % 0 % 0 m²/s² 0 0 8.12 1
17:00 0 J/kg 2.9 K 0 % 0 % 0 % 0 m²/s² 0 0 7.16 0
18:00 0 J/kg 2.9 K 0 % 0 % 0 % 0 m²/s² 0 0 5.72 0
19:00 0 J/kg 3.0 K 0 % 0 % 0 % 0 m²/s² 0 0 5.31 0
20:00 0 J/kg 2.0 K 0 % 0 % 0 % 0 m²/s² 0 0 3.62 0
21:00 0 J/kg 1.2 K 0 % 0 % 0 % 0 m²/s² 0 0 2.1 3
22:00 16 J/kg 0.5 K 0 % 0 % 0 % 0 m²/s² 0 0 1.04 2
23:00 6 J/kg 0.9 K 0 % 0 % 0 % 0 m²/s² 0 0 1.14 1
 05:10     21:04    Daglengte: 15:54 Morgen
00:00 0 J/kg 0.9 K 0 % 0 % 0 % 0 m²/s² 0 0 1.26 2
01:00 0 J/kg 0.9 K 0 % 0 % 0 % 0 m²/s² 0 0 1.32 2
02:00 0 J/kg 0.8 K 0 % 0 % 0 % 0 m²/s² 0 0 1.13 2
03:00 7 J/kg 1.5 K 0 % 0 % 0 % 0 m²/s² 0 0 1.74 3
04:00 9 J/kg 1.3 K 0 % 0 % 0 % 0 m²/s² 0 0 1.54 3
05:00 4 J/kg 0.6 K 0 % 0 % 0 % 0 m²/s² 0 0 1.35 3
06:00 35 J/kg 0.9 K 0 % 0 % 0 % 0 m²/s² 0 0 2.46 3
07:00 49 J/kg 1.3 K 0 % 0 % 0 % 0 m²/s² 0 0 4.03 61
08:00 27 J/kg 1.6 K 0 % 0 % 0 % 0 m²/s² 0 0 4.15 3
09:00 20 J/kg 1.8 K 0 % 0 % 0 % 0 m²/s² 0 0 4.35 3
10:00 5 J/kg 1.7 K 0 % 0 % 0 % 0 m²/s² 0 0 4.13 61
11:00 9 J/kg 1.9 K 0 % 0 % 0 % 0 m²/s² 0 0 3.34 61
12:00 26 J/kg 1.5 K 0 % 0 % 0 % 0 m²/s² 0 0 1.95 61
13:00 55 J/kg 1.2 K 0 % 0 % 0 % 0 m²/s² 0 0 1.65 61
14:00 31 J/kg 1.0 K 0 % 0 % 0 % 0 m²/s² 0 0 1.48 61
15:00 72 J/kg 0.7 K 0 % 0 % 0 % 0 m²/s² 0 0 1.18 61
16:00 98 J/kg 0.3 K 0 % 0 % 0 % 0 m²/s² 0 0 1.02 61
17:00 157 J/kg -0.1 K 0 % 0 % 0 % 0 m²/s² 0 0 0.71 61
18:00 89 J/kg 0.4 K 0 % 0 % 0 % 0 m²/s² 0 0 1.3 61
19:00 25 J/kg 1.3 K 0 % 0 % 0 % 0 m²/s² 0 0 2.2 61
20:00 0 J/kg 2.0 K 0 % 0 % 0 % 0 m²/s² 0 0 2.63 61
21:00 0 J/kg 2.9 K 0 % 0 % 0 % 0 m²/s² 0 0 3.47 3
22:00 0 J/kg 3.7 K 0 % 0 % 0 % 0 m²/s² 0 0 4.63 3
23:00 0 J/kg 4.1 K 0 % 0 % 0 % 0 m²/s² 0 0 5.66 3
 05:14     21:00    Daglengte: 15:46 Zaterdag 24 Aug
00:00 0 J/kg 3.5 K 0 % 0 % 0 % 0 m²/s² 0 0 6.17 2
01:00 0 J/kg 2.7 K 0 % 0 % 0 % 0 m²/s² 0 0 6.09 2
02:00 0 J/kg 2.2 K 0 % 0 % 0 % 0 m²/s² 0 0 4 2
03:00 1 J/kg 2.2 K 0 % 0 % 0 % 0 m²/s² 0 0 3.28 2
04:00 1 J/kg 2.3 K 0 % 0 % 0 % 0 m²/s² 0 0 3.68 2
05:00 0 J/kg 2.1 K 0 % 0 % 0 % 0 m²/s² 0 0 3.66 3
06:00 1 J/kg 1.7 K 0 % 0 % 0 % 0 m²/s² 0 0 3.26 1
07:00 1 J/kg 1.7 K 0 % 0 % 0 % 0 m²/s² 0 0 3.26 1
08:00 5 J/kg 1.8 K 0 % 0 % 0 % 0 m²/s² 0 0 3.3 1
09:00 23 J/kg 1.3 K 0 % 0 % 0 % 0 m²/s² 0 0 2.8 0
10:00 54 J/kg 0.7 K 0 % 0 % 0 % 0 m²/s² 0 0 2.14 1
11:00 56 J/kg 0.4 K 0 % 0 % 0 % 0 m²/s² 0 0 1.84 2
12:00 65 J/kg 0.2 K 0 % 0 % 0 % 0 m²/s² 0 0 1.76 2
13:00 65 J/kg 0.4 K 0 % 0 % 0 % 0 m²/s² 0 0 2.38 2
14:00 42 J/kg 0.6 K 0 % 0 % 0 % 0 m²/s² 0 0 3.33 3
15:00 12 J/kg 1.5 K 0 % 0 % 0 % 0 m²/s² 0 0 5.28 2
16:00 3 J/kg 2.0 K 0 % 0 % 0 % 0 m²/s² 0 0 6.77 3
17:00 0 J/kg 2.2 K 0 % 0 % 0 % 0 m²/s² 0 0 7.36 3
18:00 0 J/kg 2.6 K 0 % 0 % 0 % 0 m²/s² 0 0 8.54 3
19:00 0 J/kg 3.0 K 0 % 0 % 0 % 0 m²/s² 0 0 9.3 3
20:00 0 J/kg 3.6 K 0 % 0 % 0 % 0 m²/s² 0 0 10.8 3
21:00 0 J/kg 4.1 K 0 % 0 % 0 % 0 m²/s² 0 0 12.14 3
22:00 0 J/kg 4.5 K 0 % 0 % 0 % 0 m²/s² 0 0 12.9 3
23:00 0 J/kg 4.3 K 0 % 0 % 0 % 0 m²/s² 0 0 12.37 3
 05:17     20:56    Daglengte: 15:39 Zondag 25 Aug
00:00 0 J/kg 4.5 K 0 % 0 % 0 % 0 m²/s² 0 0 12.6 3
01:00 0 J/kg 4.8 K 0 % 0 % 0 % 0 m²/s² 0 0 13.23 3
02:00 0 J/kg 5.3 K 0 % 0 % 0 % 0 m²/s² 0 0 14.48 3
03:00 0 J/kg 5.3 K 0 % 0 % 0 % 0 m²/s² 0 0 15.38 61
04:00 0 J/kg 6.3 K 0 % 0 % 0 % 0 m²/s² 0 0 15.48 61
05:00 0 J/kg 7.2 K 0 % 0 % 0 % 0 m²/s² 0 0 15 61
06:00 0 J/kg 6.9 K 0 % 0 % 0 % 0 m²/s² 0 0 13.47 61
07:00 0 J/kg 6.5 K 0 % 0 % 0 % 0 m²/s² 0 0 10.76 61
Temp Baro Wind Neerslag
  EWN Forecast EWN WRFDA DWD ICON FMI HIRLAM MET Norway GFS
 05:07     21:08    Daglengte: 16:01 Vandaag
08:00 10.5° 1019.2 hPa 2.8 m/s 0.0 mm 11.0° 1017.6 hPa 3.7 m/s 2.0 mm 10.5° 1019.0 hPa 2.0 m/s 1.0 mm 10.3° 1019.5 hPa 3.1 m/s 0.0 mm 11.3° 1019.7 hPa 2.9 m/s 0.0 mm 10.6° 1017.9 hPa 1.1 m/s
11:00 12.6° 1018.8 hPa 2.2 m/s 0.0 mm 12.8° 1017.4 hPa 3.7 m/s 3.1 mm 12.2° 1018.8 hPa 1.0 m/s 0.0 mm 13.1° 1019.0 hPa 2.2 m/s 0.0 mm 12.9° 1018.9 hPa 2.6 m/s 0.0 mm 12.8° 1017.5 hPa 1.1 m/s
14:00 14.5° 1017.4 hPa 1.1 m/s 0.0 mm 15.0° 1016.1 hPa 1.5 m/s 3.2 mm 13.8° 1017.1 hPa 0.4 m/s 0.0 mm 15.7° 1017.4 hPa 0.7 m/s 0.0 mm 14.7° 1017.7 hPa 2.1 m/s 0.0 mm 14.7° 1016.4 hPa 0.5 m/s
17:00 16.0° 1016.0 hPa 1.4 m/s 0.0 mm 16.2° 1014.3 hPa 2.0 m/s 3.2 mm 14.8° 1016.0 hPa 0.9 m/s 0.0 mm 16.5° 1016.3 hPa 1.3 m/s 0.0 mm 16.8° 1016.2 hPa 2.6 m/s 0.0 mm 16.1° 1014.5 hPa 0.8 m/s
20:00 14.6° 1014.4 hPa 1.8 m/s 0.0 mm 14.8° 1011.9 hPa 3.1 m/s 3.2 mm 13.8° 1014.6 hPa 1.6 m/s 0.0 mm 14.5° 1015.3 hPa 1.5 m/s 0.0 mm 16.2° 1014.6 hPa 2.0 m/s 0.0 mm 13.5° 1013.1 hPa 1.4 m/s
23:00 11.5° 1013.6 hPa 1.7 m/s 0.0 mm 14.9° 1011.0 hPa 1.8 m/s 3.6 mm 11.1° 1013.7 hPa 1.6 m/s 0.0 mm 11.1° 1015.0 hPa 1.7 m/s 0.0 mm 12.6° 1013.8 hPa 1.3 m/s 0.0 mm 11.5° 1012.5 hPa 2.4 m/s
 05:10     21:04    Daglengte: 15:54 Morgen
02:00 11.9° 1012.9 hPa 1.7 m/s 0.0 mm 13.1° 1010.5 hPa 1.3 m/s 4.4 mm 10.5° 1012.6 hPa 1.7 m/s 0.0 mm 12.1° 1014.2 hPa 1.5 m/s 0.0 mm 12.5° 1013.2 hPa 2.2 m/s 0.0 mm 11.7° 1011.6 hPa 2.3 m/s
05:00 11.3° 1012.2 hPa 1.8 m/s 0.0 mm 12.1° 1009.4 hPa 2.1 m/s 12.6 mm 10.8° 1012.2 hPa 1.7 m/s 0.0 mm 11.6° 1013.4 hPa 1.6 m/s 0.0 mm 11.5° 1012.3 hPa 2.5 m/s 0.6 mm 12.0° 1011.1 hPa 1.6 m/s
08:00 11.7° 1011.9 hPa 1.7 m/s 0.0 mm 13.2° 1008.8 hPa 3.0 m/s 16.9 mm 11.9° 1011.7 hPa 1.3 m/s 0.1 mm 12.4° 1012.9 hPa 1.5 m/s 0.0 mm 11.5° 1012.0 hPa 2.2 m/s 1.5 mm 11.7° 1010.6 hPa 1.2 m/s
11:00 13.4° 1012.2 hPa 1.3 m/s 2.7 mm 14.5° 1009.4 hPa 2.2 m/s 17.1 mm 13.4° 1012.1 hPa 0.8 m/s 0.6 mm 15.8° 1013.3 hPa 1.1 m/s 0.0 mm 13.0° 1012.1 hPa 2.2 m/s 0.9 mm 12.0° 1011.2 hPa 0.7 m/s
14:00 13.2° 1013.3 hPa 1.7 m/s 2.7 mm 15.5° 1008.7 hPa 3.2 m/s 17.1 mm 13.1° 1012.9 hPa 1.4 m/s 1.4 mm 16.4° 1014.4 hPa 1.4 m/s 0.0 mm 12.8° 1013.4 hPa 2.1 m/s 0.3 mm 14.8° 1011.1 hPa 0.5 m/s
17:00 13.3° 1014.5 hPa 3.3 m/s 3.2 mm 16.1° 1009.4 hPa 3.7 m/s 17.1 mm 12.3° 1014.4 hPa 1.8 m/s 3.0 mm 15.5° 1016.0 hPa 3.6 m/s 0.0 mm 13.2° 1014.6 hPa 3.6 m/s 0.5 mm 15.6° 1011.6 hPa 1.4 m/s
20:00 12.4° 1015.9 hPa 2.5 m/s 4.1 mm 13.2° 1010.1 hPa 2.1 m/s 17.3 mm 11.9° 1015.3 hPa 1.0 m/s 1.1 mm 14.1° 1017.7 hPa 3.1 m/s 0.0 mm 12.5° 1016.0 hPa 3.6 m/s 0.5 mm 13.7° 1012.4 hPa 1.5 m/s
23:00 11.3° 1017.4 hPa 2.2 m/s 0.0 mm 9.5° 1011.9 hPa 3.5 m/s 17.3 mm 11.1° 1016.2 hPa 0.3 m/s 0.1 mm 12.2° 1020.0 hPa 2.8 m/s 0.0 mm 12.2° 1017.5 hPa 2.5 m/s 0.0 mm 10.2° 1014.2 hPa 1.6 m/s
 05:14     21:00    Daglengte: 15:46 Zaterdag 24 Aug
02:00 10.5° 1019.0 hPa 1.8 m/s 0.0 mm 9.0° 1013.9 hPa 3.5 m/s 17.3 mm 9.8° 1016.8 hPa 1.2 m/s 0.0 mm 11.5° 1022.6 hPa 2.7 m/s 0.0 mm 12.1° 1019.1 hPa 1.7 m/s 0.0 mm 9.1° 1015.8 hPa 1.4 m/s
05:00 9.4° 1020.3 hPa 1.4 m/s 0.0 mm 8.5° 1015.3 hPa 2.9 m/s 17.7 mm 9.3° 1018.2 hPa 1.2 m/s 0.0 mm 11.7° 1021.0 hPa 1.0 m/s 0.0 mm 10.1° 1017.7 hPa 1.2 m/s
08:00 11.3° 1021.2 hPa 1.2 m/s 0.0 mm 11.7° 1017.3 hPa 3.5 m/s 18.4 mm 11.0° 1018.2 hPa 1.0 m/s 0.0 mm 12.1° 1022.1 hPa 0.8 m/s 0.0 mm 11.4° 1019.5 hPa 1.6 m/s
11:00 13.9° 1021.9 hPa 1.4 m/s 0.0 mm 14.7° 1019.4 hPa 4.0 m/s 18.9 mm 13.7° 1019.0 hPa 0.5 m/s 0.0 mm 14.3° 1022.7 hPa 1.5 m/s 0.0 mm 13.7° 1021.2 hPa 1.9 m/s
14:00 15.9° 1022.2 hPa 1.4 m/s 0.0 mm 16.5° 1020.3 hPa 4.9 m/s 19.0 mm 15.0° 1019.0 hPa 1.0 m/s 0.0 mm 16.3° 1023.1 hPa 1.3 m/s 0.0 mm 15.5° 1022.1 hPa 2.4 m/s
17:00 16.2° 1021.5 hPa 1.4 m/s 0.0 mm 16.3° 1021.4 hPa 4.5 m/s 19.0 mm 15.2° 1019.0 hPa 1.1 m/s 0.0 mm 17.2° 1022.4 hPa 1.3 m/s 0.0 mm 16.0° 1023.2 hPa 2.5 m/s
20:00 14.6° 1021.1 hPa 1.0 m/s 0.0 mm 13.4° 1021.7 hPa 2.0 m/s 19.0 mm 14.3° 1018.2 hPa 0.6 m/s 0.0 mm 16.4° 1021.6 hPa 1.0 m/s 0.0 mm 12.9° 1023.6 hPa 1.2 m/s
23:00 12.8° 1020.6 hPa 1.6 m/s 0.0 mm 10.1° 1022.3 hPa 2.0 m/s 19.0 mm 12.7° 1018.4 hPa 1.2 m/s 0.0 mm 14.8° 1021.0 hPa 1.6 m/s 8.6° 1024.5 hPa 0.6 m/s
 05:17     20:56    Daglengte: 15:39 Zondag 25 Aug
02:00 12.0° 1020.1 hPa 1.9 m/s 7.5 mm 9.2° 1022.0 hPa 2.5 m/s 19.0 mm 12.1° 1017.8 hPa 0.3 m/s 0.0 mm 13.1° 1020.3 hPa 2.2 m/s 8.4° 1024.0 hPa 1.4 m/s
05:00 12.3° 1019.4 hPa 1.9 m/s 6.6 mm 8.9° 1021.0 hPa 2.5 m/s 19.0 mm 11.9° 1017.4 hPa 0.2 m/s 0.5 mm 13.3° 1019.6 hPa 2.2 m/s 7.7° 1023.0 hPa 1.3 m/s
08:00 13.3° 1018.7 hPa 1.5 m/s 8.2 mm 13.7° 1019.8 hPa 1.0 m/s 19.0 mm 11.8° 1016.6 hPa 0.6 m/s 2.8 mm 13.6° 1019.0 hPa 2.1 m/s 12.3° 1022.3 hPa 1.2 m/s
11:00 16.2° 1018.7 hPa 2.2 m/s 10.7 mm 16.5° 1018.5 hPa 2.3 m/s 12.9° 1021.1 hPa 1.2 m/s 10.7 mm
14:00 17.5° 1018.4 hPa 2.3 m/s 11.9 mm 18.0° 1018.2 hPa 2.4 m/s 12.5° 1020.5 hPa 0.8 m/s 11.9 mm
17:00 16.9° 1017.3 hPa 2.2 m/s 14.5 mm 17.4° 1017.1 hPa 2.2 m/s 12.4° 1020.0 hPa 1.8 m/s 14.5 mm
20:00 16.4° 1016.3 hPa 1.9 m/s 17.6 mm 16.7° 1016.0 hPa 2.0 m/s 12.7° 1019.4 hPa 1.3 m/s 17.6 mm
23:00 15.1° 1016.4 hPa 2.3 m/s 18.9 mm 15.3° 1016.2 hPa 2.4 m/s 12.6° 1019.1 hPa 1.6 m/s 18.9 mm
 05:20     20:52    Daglengte: 15:32 Maandag 26 Aug
02:00 13.8° 1016.6 hPa 2.6 m/s 20.3 mm 13.9° 1016.4 hPa 2.7 m/s 12.7° 1018.7 hPa 1.0 m/s 20.3 mm
05:00 14.1° 1016.8 hPa 2.6 m/s 21.2 mm 14.2° 1016.7 hPa 2.7 m/s 13.1° 1017.4 hPa 1.7 m/s 21.2 mm
08:00 14.4° 1016.9 hPa 2.5 m/s 21.7 mm 14.4° 1017.0 hPa 2.6 m/s 14.4° 1016.2 hPa 1.6 m/s 21.7 mm
11:00 17.4° 1017.3 hPa 3.0 m/s 21.7 mm 17.4° 1017.6 hPa 3.1 m/s 18.4° 1013.6 hPa 1.6 m/s 21.7 mm
14:00 20.3° 1017.6 hPa 3.5 m/s 22.0 mm 20.3° 1018.2 hPa 3.6 m/s 20.9° 1011.0 hPa 2.4 m/s 22.0 mm
17:00 19.9° 1017.7 hPa 2.6 m/s 22.3 mm 19.8° 1018.6 hPa 2.6 m/s 21.2° 1007.8 hPa 2.0 m/s 22.3 mm
20:00 18.9° 1017.9 hPa 1.6 m/s 24.7 mm 19.2° 1019.0 hPa 1.6 m/s 15.8° 1006.2 hPa 2.1 m/s 24.7 mm
23:00 16.5° 1019.0 hPa 2.1 m/s 30.7 mm 16.7° 1020.1 hPa 2.0 m/s 14.5° 1007.3 hPa 3.2 m/s 30.7 mm
 05:24     20:48    Daglengte: 15:24 Dinsdag 27 Aug
02:00 14.0° 1020.2 hPa 2.7 m/s 31.5 mm 14.2° 1021.2 hPa 2.5 m/s 11.5° 1009.1 hPa 5.4 m/s 31.5 mm
05:00 14.4° 1019.7 hPa 2.8 m/s 31.9 mm 14.6° 1020.7 hPa 2.6 m/s 11.5° 1009.5 hPa 4.4 m/s 31.9 mm
08:00 14.8° 1019.2 hPa 3.1 m/s 32.7 mm 15.1° 1020.1 hPa 2.8 m/s 11.5° 1009.5 hPa 6.6 m/s 32.7 mm
11:00 18.7° 1019.0 hPa 3.2 m/s 33.4 mm 19.4° 1020.0 hPa 3.1 m/s 11.8° 1009.1 hPa 4.1 m/s 33.4 mm
14:00 22.7° 1018.9 hPa 3.3 m/s 35.2 mm 23.6° 1019.8 hPa 3.4 m/s 12.3° 1008.5 hPa 2.7 m/s 35.2 mm
17:00 21.4° 1017.7 hPa 2.5 m/s 37.7 mm 22.3° 1018.6 hPa 2.6 m/s 12.0° 1007.7 hPa 1.9 m/s 37.7 mm
20:00 20.3° 1016.7 hPa 1.9 m/s 39.3 mm 21.0° 1017.5 hPa 1.8 m/s 13.0° 1007.7 hPa 3.4 m/s 39.3 mm
23:00 17.5° 1016.7 hPa 2.3 m/s 39.6 mm 17.9° 1017.4 hPa 2.2 m/s 12.7° 1008.8 hPa 3.1 m/s 39.6 mm
 05:27     20:44    Daglengte: 15:17 Woensdag 28 Aug
02:00 14.6° 1016.6 hPa 2.5 m/s 40.3 mm 14.8° 1017.3 hPa 2.6 m/s 12.4° 1008.9 hPa 1.9 m/s 40.3 mm
05:00 15.4° 1016.7 hPa 2.8 m/s 42.1 mm 15.7° 1017.5 hPa 2.8 m/s 13.2° 1008.2 hPa 2.6 m/s 42.1 mm
08:00 16.2° 1016.8 hPa 2.9 m/s 46.6 mm 16.5° 1017.6 hPa 3.0 m/s 13.3° 1007.9 hPa 2.3 m/s 46.6 mm
11:00 19.9° 1016.9 hPa 3.4 m/s 50.5 mm 20.5° 1017.7 hPa 3.5 m/s 13.6° 1008.3 hPa 2.3 m/s 50.5 mm
14:00 23.6° 1017.0 hPa 3.7 m/s 52.4 mm 24.5° 1017.7 hPa 3.9 m/s 13.6° 1008.9 hPa 2.0 m/s 52.4 mm
17:00 22.0° 1016.6 hPa 2.9 m/s 52.7 mm 22.9° 1017.4 hPa 3.1 m/s 13.2° 1008.4 hPa 0.9 m/s 52.7 mm
20:00 20.5° 1016.3 hPa 2.2 m/s 53.1 mm 21.2° 1017.0 hPa 2.3 m/s 12.8° 1008.2 hPa 0.6 m/s 53.1 mm
23:00 18.2° 1016.0 hPa 2.3 m/s 53.3 mm 18.7° 1016.8 hPa 2.5 m/s 12.6° 1007.2 hPa 0.4 m/s 53.3 mm
 05:31     20:40    Daglengte: 15:09 Donderdag 29 Aug
02:00 15.9° 1015.6 hPa 2.5 m/s 53.7 mm 16.2° 1016.5 hPa 2.7 m/s 12.9° 1006.1 hPa 0.5 m/s 53.7 mm
05:00 15.8° 1014.5 hPa 2.9 m/s 54.1 mm 15.9° 1015.4 hPa 3.0 m/s 13.6° 1005.0 hPa 0.8 m/s 54.1 mm
08:00 15.6° 1013.5 hPa 3.2 m/s 54.5 mm 15.7° 1014.3 hPa 3.4 m/s 14.7° 1005.0 hPa 1.4 m/s 54.5 mm
14:00 19.6° 1013.2 hPa 4.5 m/s 57.5 mm 19.7° 1013.8 hPa 4.6 m/s 18.1° 1007.1 hPa 3.3 m/s 57.5 mm
20:00 16.6° 1014.1 hPa 2.0 m/s 58.6 mm 16.9° 1014.7 hPa 2.1 m/s 13.6° 1007.0 hPa 0.7 m/s 58.6 mm
 05:34     20:36    Daglengte: 15:02 Vrijdag 30 Aug
02:00 13.0° 1014.3 hPa 2.3 m/s 70.7 mm 13.0° 1015.3 hPa 2.4 m/s 12.8° 1003.9 hPa 1.6 m/s 70.7 mm
08:00 13.3° 1012.5 hPa 3.1 m/s 71.3 mm 13.4° 1013.2 hPa 3.2 m/s 12.7° 1005.3 hPa 2.3 m/s 71.3 mm
14:00 17.0° 1013.4 hPa 3.6 m/s 71.5 mm 17.2° 1013.9 hPa 3.7 m/s 14.7° 1008.3 hPa 2.7 m/s 71.6 mm
20:00 16.1° 1012.1 hPa 2.1 m/s 71.7 mm 16.4° 1012.2 hPa 2.1 m/s 12.8° 1011.1 hPa 1.8 m/s 71.7 mm
 05:37     20:32    Daglengte: 14:55 Zaterdag 31 Aug
02:00 12.1° 1011.2 hPa 1.9 m/s 71.7 mm 12.5° 1010.9 hPa 2.0 m/s 8.2° 1014.2 hPa 1.3 m/s 71.7 mm
08:00 11.9° 1011.0 hPa 2.6 m/s 71.7 mm 12.1° 1010.6 hPa 2.7 m/s 10.0° 1015.1 hPa 1.8 m/s 71.7 mm
14:00 16.7° 1015.5 hPa 1.2 m/s 71.7 mm 16.7° 1015.5 hPa 1.2 m/s 71.7 mm
20:00 13.5° 1016.1 hPa 1.2 m/s 71.7 mm 13.5° 1016.1 hPa 1.2 m/s 71.7 mm
 05:40     20:28    Daglengte: 14:48 Zondag 01 Sep
02:00 11.1° 1007.9 hPa 0.8 m/s 1.5 mm
08:00 11.5° 1007.7 hPa 0.9 m/s 2.0 mm
14:00 13.8° 1007.7 hPa 1.6 m/s 2.4 mm
20:00 11.9° 1008.6 hPa 1.0 m/s 1.4 mm
 05:44     20:24    Daglengte: 14:40 Maandag 02 Sep
02:00 9.9° 1009.9 hPa 0.6 m/s 1.1 mm
08:00 10.6° 1009.9 hPa 1.0 m/s 0.6 mm
14:00 14.0° 1009.9 hPa 1.1 m/s 1.1 mm
20:00 11.9° 1010.1 hPa 0.8 m/s 1.0 mm
 05:47     20:20    Daglengte: 14:33 Dinsdag 03 Sep
02:00 9.7° 1010.8 hPa 1.1 m/s 1.0 mm
08:00 10.6° 1010.7 hPa 1.7 m/s 1.3 mm
14:00 14.1° 1010.2 hPa 2.1 m/s 0.9 mm
20:00 12.0° 1009.6 hPa 1.4 m/s 1.1 mm
 05:50     20:16    Daglengte: 14:26 Woensdag 04 Sep
02:00 10.3° 1009.5 hPa 1.9 m/s 0.6 mm
08:00 11.1° 1008.7 hPa 1.9 m/s 1.7 mm
14:00 13.5° 1008.8 hPa 2.1 m/s 3.1 mm
20:00 11.7° 1009.4 hPa 1.8 m/s 3.5 mm
 05:54     20:12    Daglengte: 14:18 Donderdag 05 Sep
02:00 10.2° 1010.1 hPa 1.3 m/s 1.4 mm
08:00 10.6° 1009.5 hPa 1.4 m/s 1.1 mm
14:00 13.3° 1010.0 hPa 2.0 m/s 1.5 mm
20:00 11.2° 1011.3 hPa 1.9 m/s 1.9 mm
 05:57     20:08    Daglengte: 14:11 Vrijdag 06 Sep
02:00 9.6° 1012.8 hPa 1.1 m/s 1.1 mm
FMI Hirlam - 7.5 km EWN WRFDA - 12 km DWD ICON - 7 km GFS - 25 km Basiskaart






























































Updatetijd (Europe/Amsterdam) Resolutie Lengte Stap
FMI Hirlam 07:00, 13:00, 19:00, 01:00 7.5 km 49h 1h
EWN WRFDA 03:45, 09:45, 15:45, 21:45 12 km 73h 1h
DWD ICON 05:45, 11:45, 17:45, 23:45 7 km 75h 1h
GFS 02:30, 08:30, 14:30, 20:30 25 km 237h 3h
30+ mm
25-30 mm
20-25 mm
15-20 mm
10-15 mm
6-10 mm
4-6 mm
2-4 mm
1-2 mm
0.5-1 mm
0.2-0.5 mm
0.1-0.2 mm
30+ mm
25-30 mm
20-25 mm
15-20 mm
10-15 mm
6-10 mm
4-6 mm
2-4 mm
1-2 mm
0.5-1 mm
0.2-0.5 mm
0.1-0.2 mm
Sneeuwval
Natte sneeuw
Hagel
Vorst
30+ mm
25-30 mm
20-25 mm
15-20 mm
10-15 mm
6-10 mm
4-6 mm
2-4 mm
1-2 mm
0.5-1 mm
0.2-0.5 mm
0.1-0.2 mm
Sneeuwval
Natte sneeuw
Hagel
Vorst
Onweer
50 mm
40 mm
30 mm
26 mm
22 mm
18 mm
14 mm
10 mm
9 mm
8 mm
7 mm
6 mm
5 mm
4.5 mm
4 mm
3.5 mm
3 mm
2.5 mm
2 mm
1.5 mm
1 mm
0.8 mm
0.6 mm
0.4 mm
0.2 mm
0.05 mm
35°
30°
25°
20°
15°
10°
-5°
-10°
-15°
-20°
-25°
-30°
-35°
120> km/h
105 km/h
90 km/h
75 km/h
60 km/h
50 km/h
40 km/h
30 km/h
20 km/h
10 km/h
0 km/h
2600 J/kg
2400 J/kg
2200 J/kg
2000 J/kg
1800 J/kg
1600 J/kg
1400 J/kg
1200 J/kg
1000 J/kg
800 J/kg
600 J/kg
400 J/kg
200 J/kg
70 dBZ
65 dBZ
60 dBZ
55 dBZ
50 dBZ
45 dBZ
40 dBZ
35 dBZ
30 dBZ
25 dBZ
20 dBZ
15 dBZ
10 dBZ
5 dBZ
-1 K
-2 K
-3 K
-4 K
-5 K
-6 K
-7 K
-8 K
-9 K
950 m²/s²
900 m²/s²
850 m²/s²
800 m²/s²
750 m²/s²
700 m²/s²
650 m²/s²
600 m²/s²
550 m²/s²
500 m²/s²
450 m²/s²
400 m²/s²
350 m²/s²
300 m²/s²
250 m²/s²
200 m²/s²
150 m²/s²
100 m²/s²
46 m/s
44 m/s
42 m/s
40 m/s
38 m/s
36 m/s
34 m/s
32 m/s
30 m/s
28 m/s
26 m/s
24 m/s
22 m/s
20 m/s
16 m/s
12 m/s
8 m/s
4 m/s
30 m/s
28 m/s
26 m/s
24 m/s
22 m/s
20 m/s
18 m/s
16 m/s
14 m/s
12 m/s
10 m/s
8 m/s
6 m/s
4 m/s
2 m/s
3.0
2.8
2.6
2.4
2.2
2.0
1.8
1.6
1.4
1.2
1.0
0.8
0.6
0.4
0.2
15
14
13
12
11
10
9
8
7
6
5
4
3
2
1
90%
80%
70%
60%
50%
40%
30%
20%
10%
42
40
38
36
34
32
30
28
26
24
22
20
18
16
14
12
90+ cm
80-90 cm
70-80 cm
60-70 cm
50-60 cm
40-50 cm
30-40 cm
20-30 cm
10-20 cm
1-10 cm
Sneeuwval
Natte sneeuw
Regen
>120 mm
115 mm
110 mm
105 mm
100 mm
95 mm
90 mm
85 mm
80 mm
75 mm
70 mm
65 mm
60 mm
55 mm
50 mm
45 mm
45 mm
40 mm
35 mm
30 mm
25 mm
20 mm
15 mm
10 mm
5 mm
0.1 mm
960 hPa
880 hPa
800 hPa
720 hPa
640 hPa
560 hPa
584 gpdm
568 gpdm
552 gpdm
536 gpdm
520 gpdm
504 gpdm
488 gpdm
Extreem zwaar Noodweer Kans op onweer
15% 15% 5% 50% 15%

Dag




Kaart






35°
30°
25°
20°
15°
10°
-5°
-10°
-15°
-20°